Weather in Liverpool

United Kingdom     53˚24′06″N   2˚56′08″W
temp.,
°C
wind,
m/s
gust,
m/s
humid.,
%
clouds,
%
prec.,
mm/h
press.,
hPa
HPBL,
m
28 november, sat
sat2800:00+4˚ese368285 0.0 1017266
03:00+4˚ese468537 0.0 1017240
06:00+6˚ese478362 0.0 1018339
09:00+6˚ese498870 0.0 1018332
12:00+8˚ese498476 0.1 1019533
15:00+8˚ese378699 0.0 1020392
18:00+8˚ese3690100 0.1 1021306
21:00+8˚ese3690100 0.0 1023288
29 november, sun
sun2900:00+8˚ese359382 0.0 1024207
03:00+8˚se359098 0.0 1024231
06:00+8˚se359298 0.0 1025199
09:00+7˚se349354 0.0 1026157
12:00+9˚se238654 0.0 1026181
15:00+9˚s1285100 0.0 1026116
18:00+9˚wsw1291100 0.0 1026107
21:00+9˚nnw1191100 0.1 102736
30 november, mon
mon3000:00+10˚wsw3590100 0.1 1027176
03:00+10˚w5989100 0.3 1026362
06:00+10˚w6109197 0.7 1025443
09:00+10˚w71189100 0.2 1025668
12:00+9˚w91386100 0.5 1024692
15:00+10˚w101489100 0.6 1022839
18:00+11˚wnw101588100 1.7 1022716
21:00+10˚nw71289100 0.3 1023616
1 december, tue
tue100:00+8˚nnw597391 0.3 1024417
03:00+7˚n238385 0.0 1025127
06:00+6˚nne118057 0.0 102663
09:00+6˚e007180 0.0 102753
12:00+8˚ssw116889 0.0 1026183
15:00+9˚w2479100 0.0 1025240
18:00+9˚wsw3792100 0.0 1025271
21:00+9˚wsw499194 0.0 1024355
2 december, wed
wed200:00+10˚wsw599093 0.1 1023441
03:00+9˚wsw498998 0.1 1021471
06:00+10˚wsw4108999 0.3 1020505
09:00+8˚wnw687486 0.4 1020732
12:00+8˚w676783 0.4 10191093
15:00+8˚w6868100 0.1 1017991
18:00+8˚wsw6870100 0.2 1015872
21:00+8˚wsw71071100 0.1 1013849